Qianfan 05-10

operational
NORAD ID: 63168 Int'l Des: 2025-046 Owner: YUANX Country: CN Constellation: qianfan
LEOCIRCULARPOLAR

Qianfan 05-10について

説明を読み込み中...

リアルタイム位置

3D地球を読み込み中...

次回通過

高度履歴

Altitude vs Time

uPlot chart will show altitude changes over time

軌道要素

1 63168U 25046K 25350.96694978 .00000125 00000-0 17484-3 0 9999
2 63168 88.9765 319.4781 0014497 111.8949 248.3745 13.50977002 48043
Epoch: Dec 16, 2025 • Age: 9 hours

現在のステータス

高度 1070.8 km
速度 7.32 km/s
衛星直下点 37.96°N, 109.8°E
打ち上げ日 Mar 11, 2025
運用期間 0.7 years
タイプ internet

技術仕様

分類 Payload
質量 267.00 kg
乾燥質量 267.00 kg
総質量 267.00 kg
長さ 0.30 m
直径 3.00 m
スパン 10.00 m
形状 Box+pan
製造者 GESIH
バスタイプ Qianfan
フェーズステータス In Orbit
所有者/国 YUANX/CN

大規模コンステレーション

Loading constellations...